Time,TemperatureF,DewpointF,PressureIn,WindDirection,WindDirectionDegrees,WindSpeedMPH,WindSpeedGustMPH,Humidity,HourlyPrecipIn,Conditions,Clouds,dailyrainin,SolarRadiationWatts/m^2,SoftwareType,DateUTC
2013-03-25 00:02:00,32.0,23.0,-100.00,NNE,28,0.0,2.0,69,0.00,,,0.00,1.000000,,2013-03-25 07:02:00,
2013-03-25 00:12:00,32.0,23.0,-100.00,NNE,28,0.0,2.0,69,0.00,,,0.00,1.000000,,2013-03-25 07:12:00,
2013-03-25 00:21:00,32.0,23.0,-100.00,NNE,28,0.0,2.0,69,0.00,,,0.00,1.000000,,2013-03-25 07:21:00,
2013-03-25 00:52:00,32.0,23.0,-100.00,NNE,22,1.0,2.0,70,0.00,,,0.00,1.000000,,2013-03-25 07:52:00,
2013-03-25 01:02:00,32.0,23.0,-100.00,NNE,22,1.0,2.0,70,0.00,,,0.00,1.000000,,2013-03-25 08:02:00,
2013-03-25 01:12:00,32.0,23.0,-100.00,NNE,22,1.0,2.0,70,0.00,,,0.00,1.000000,,2013-03-25 08:12:00,
2013-03-25 01:22:00,32.0,23.0,-100.00,NNE,22,1.0,2.0,70,0.00,,,0.00,1.000000,,2013-03-25 08:22:00,
2013-03-25 01:52:00,29.0,23.0,-100.00,SE,146,1.0,3.0,78,0.00,,,0.00,1.000000,,2013-03-25 08:52:00,
2013-03-25 02:02:00,29.0,23.0,-100.00,SE,146,1.0,3.0,78,0.00,,,0.00,1.000000,,2013-03-25 09:02:00,
2013-03-25 02:11:00,29.0,23.0,-100.00,SE,146,1.0,3.0,78,0.00,,,0.00,1.000000,,2013-03-25 09:11:00,
2013-03-25 02:22:00,29.0,23.0,-100.00,SE,146,1.0,3.0,78,0.00,,,0.00,1.000000,,2013-03-25 09:22:00,
2013-03-25 02:52:00,29.0,23.0,-100.00,ENE,69,1.0,4.0,79,0.00,,,0.00,1.000000,,2013-03-25 09:52:00,
2013-03-25 03:02:00,29.0,23.0,-100.00,ENE,69,1.0,4.0,79,0.00,,,0.00,1.000000,,2013-03-25 10:02:00,
2013-03-25 03:12:00,29.0,23.0,-100.00,ENE,69,1.0,4.0,79,0.00,,,0.00,1.000000,,2013-03-25 10:12:00,
2013-03-25 03:22:00,29.0,23.0,-100.00,ENE,69,1.0,4.0,79,0.00,,,0.00,1.000000,,2013-03-25 10:22:00,
2013-03-25 03:54:00,29.0,24.0,-100.00,NNE,24,2.0,3.0,80,0.00,,,0.00,1.000000,,2013-03-25 10:54:00,
2013-03-25 04:03:00,29.0,24.0,-100.00,NNE,24,2.0,3.0,80,0.00,,,0.00,1.000000,,2013-03-25 11:03:00,
2013-03-25 04:12:00,29.0,24.0,-100.00,NNE,24,2.0,3.0,80,0.00,,,0.00,1.000000,,2013-03-25 11:12:00,
2013-03-25 04:52:00,29.0,23.0,-100.00,NNE,31,1.0,4.0,79,0.00,,,0.00,1.000000,,2013-03-25 11:52:00,
2013-03-25 05:02:00,29.0,23.0,-100.00,NNE,31,1.0,4.0,79,0.00,,,0.00,1.000000,,2013-03-25 12:02:00,
2013-03-25 05:12:00,29.0,23.0,-100.00,NNE,31,1.0,4.0,79,0.00,,,0.00,1.000000,,2013-03-25 12:12:00,
2013-03-25 05:22:00,29.0,23.0,-100.00,NNE,31,1.0,4.0,79,0.00,,,0.00,1.000000,,2013-03-25 12:22:00,
2013-03-25 05:43:00,28.0,23.0,-100.00,ENE,76,1.0,3.0,82,0.00,,,0.00,1.000000,,2013-03-25 12:43:00,
2013-03-25 05:53:00,28.0,23.0,-100.00,ENE,76,1.0,3.0,82,0.00,,,0.00,1.000000,,2013-03-25 12:53:00,
2013-03-25 06:02:00,28.0,23.0,-100.00,ENE,76,1.0,3.0,82,0.00,,,0.00,1.000000,,2013-03-25 13:02:00,
2013-03-25 06:12:00,28.0,23.0,-100.00,ENE,76,1.0,3.0,82,0.00,,,0.00,1.000000,,2013-03-25 13:12:00,
2013-03-25 06:52:00,27.0,22.0,-100.00,West,273,1.0,2.0,82,0.00,,,0.00,1.000000,,2013-03-25 13:52:00,
2013-03-25 07:02:00,27.0,22.0,-100.00,West,273,1.0,2.0,82,0.00,,,0.00,1.000000,,2013-03-25 14:02:00,
2013-03-25 07:12:00,27.0,22.0,-100.00,West,273,1.0,2.0,82,0.00,,,0.00,1.000000,,2013-03-25 14:12:00,
2013-03-25 07:22:00,27.0,22.0,-100.00,West,273,1.0,2.0,82,0.00,,,0.00,1.000000,,2013-03-25 14:22:00,
2013-03-25 07:53:00,29.0,24.0,-100.00,SSW,203,3.0,4.0,80,0.00,,,-99.99,7.000000,,2013-03-25 14:53:00,
2013-03-25 08:02:00,29.0,24.0,-100.00,SSW,203,3.0,4.0,80,0.00,,,-99.99,7.000000,,2013-03-25 15:02:00,
2013-03-25 08:12:00,29.0,24.0,-100.00,SSW,203,3.0,4.0,80,0.00,,,-99.99,7.000000,,2013-03-25 15:12:00,
2013-03-25 08:22:00,29.0,24.0,-100.00,SSW,203,3.0,4.0,80,0.00,,,-99.99,7.000000,,2013-03-25 15:22:00,
2013-03-25 08:53:00,33.0,25.0,-100.00,SSW,196,1.0,6.0,72,0.00,,,0.00,66.000000,,2013-03-25 15:53:00,
2013-03-25 09:03:00,33.0,25.0,-100.00,SSW,196,1.0,6.0,72,0.00,,,0.00,66.000000,,2013-03-25 16:03:00,
2013-03-25 09:12:00,33.0,25.0,-100.00,SSW,196,1.0,6.0,72,0.00,,,0.00,66.000000,,2013-03-25 16:12:00,
2013-03-25 09:22:00,33.0,25.0,-100.00,SSW,196,1.0,6.0,72,0.00,,,0.00,66.000000,,2013-03-25 16:22:00,
2013-03-25 09:43:00,37.0,26.0,-100.00,SSW,210,2.0,3.0,64,0.00,,,0.00,195.000000,,2013-03-25 16:43:00,
2013-03-25 09:53:00,37.0,26.0,-100.00,SSW,210,2.0,3.0,64,0.00,,,0.00,195.000000,,2013-03-25 16:53:00,
2013-03-25 10:02:00,37.0,26.0,-100.00,SSW,210,2.0,3.0,64,0.00,,,0.00,195.000000,,2013-03-25 17:02:00,
2013-03-25 10:12:00,37.0,26.0,-100.00,SSW,210,2.0,3.0,64,0.00,,,0.00,195.000000,,2013-03-25 17:12:00,
2013-03-25 10:22:00,37.0,26.0,-100.00,SSW,210,2.0,3.0,64,0.00,,,0.00,195.000000,,2013-03-25 17:22:00,
2013-03-25 10:53:00,42.0,26.0,-100.00,WNW,298,2.0,5.0,52,0.00,,,0.00,424.000000,,2013-03-25 17:53:00,
2013-03-25 11:03:00,42.0,26.0,-100.00,WNW,298,2.0,5.0,52,0.00,,,0.00,424.000000,,2013-03-25 18:03:00,
2013-03-25 11:12:00,42.0,26.0,-100.00,WNW,298,2.0,5.0,52,0.00,,,0.00,424.000000,,2013-03-25 18:12:00,
2013-03-25 11:22:00,42.0,26.0,-100.00,WNW,298,2.0,5.0,52,0.00,,,0.00,424.000000,,2013-03-25 18:22:00,
2013-03-25 11:53:00,47.0,27.0,-100.00,NE,43,3.0,6.0,46,0.00,,,0.00,575.000000,,2013-03-25 18:53:00,
2013-03-25 12:02:00,47.0,27.0,-100.00,NE,43,3.0,6.0,46,0.00,,,0.00,575.000000,,2013-03-25 19:02:00,
2013-03-25 12:12:00,47.0,27.0,-100.00,NE,43,3.0,6.0,46,0.00,,,0.00,575.000000,,2013-03-25 19:12:00,
2013-03-25 12:22:00,47.0,27.0,-100.00,NE,43,3.0,6.0,46,0.00,,,0.00,575.000000,,2013-03-25 19:22:00,
2013-03-25 12:52:00,48.0,28.0,-100.00,NE,52,3.0,7.0,46,0.00,,,0.00,447.000000,,2013-03-25 19:52:00,
2013-03-25 13:02:00,48.0,28.0,-100.00,NE,52,3.0,7.0,46,0.00,,,0.00,447.000000,,2013-03-25 20:02:00,
2013-03-25 13:12:00,48.0,28.0,-100.00,NE,52,3.0,7.0,46,0.00,,,0.00,447.000000,,2013-03-25 20:12:00,
2013-03-25 13:22:00,48.0,28.0,-100.00,NE,52,3.0,7.0,46,0.00,,,0.00,447.000000,,2013-03-25 20:22:00,
2013-03-25 13:52:00,48.0,28.0,-100.00,NNE,14,3.0,7.0,46,0.00,,,0.00,442.000000,,2013-03-25 20:52:00,
2013-03-25 14:02:00,48.0,28.0,-100.00,NNE,14,3.0,7.0,46,0.00,,,0.00,442.000000,,2013-03-25 21:02:00,
2013-03-25 14:12:00,48.0,28.0,-100.00,NNE,14,3.0,7.0,46,0.00,,,0.00,442.000000,,2013-03-25 21:12:00,
2013-03-25 14:22:00,48.0,28.0,-100.00,NNE,14,3.0,7.0,46,0.00,,,0.00,442.000000,,2013-03-25 21:22:00,
2013-03-25 14:43:00,52.0,29.0,-100.00,North,4,4.0,8.0,41,0.00,,,0.00,571.000000,,2013-03-25 21:43:00,
2013-03-25 14:52:00,52.0,29.0,-100.00,North,4,4.0,8.0,41,0.00,,,0.00,571.000000,,2013-03-25 21:52:00,
2013-03-25 15:03:00,52.0,29.0,-100.00,North,4,4.0,8.0,41,0.00,,,0.00,571.000000,,2013-03-25 22:03:00,
2013-03-25 15:12:00,52.0,29.0,-100.00,North,4,4.0,8.0,41,0.00,,,0.00,571.000000,,2013-03-25 22:12:00,
2013-03-25 15:22:00,52.0,29.0,-100.00,North,4,4.0,8.0,41,0.00,,,0.00,571.000000,,2013-03-25 22:22:00,
2013-03-25 15:42:00,51.0,28.0,-100.00,North,11,4.0,8.0,41,0.00,,,0.00,496.000000,,2013-03-25 22:42:00,
2013-03-25 15:52:00,51.0,28.0,-100.00,North,11,4.0,8.0,41,0.00,,,0.00,496.000000,,2013-03-25 22:52:00,
2013-03-25 16:02:00,51.0,28.0,-100.00,North,11,4.0,8.0,41,0.00,,,0.00,496.000000,,2013-03-25 23:02:00,
2013-03-25 16:12:00,51.0,28.0,-100.00,North,11,4.0,8.0,41,0.00,,,0.00,496.000000,,2013-03-25 23:12:00,
2013-03-25 16:22:00,51.0,28.0,-100.00,North,11,4.0,8.0,41,0.00,,,0.00,496.000000,,2013-03-25 23:22:00,
2013-03-25 16:52:00,49.0,29.0,-100.00,NE,40,3.0,8.0,45,0.00,,,0.00,324.000000,,2013-03-25 23:52:00,
2013-03-25 17:02:00,49.0,29.0,-100.00,NE,40,3.0,8.0,45,0.00,,,0.00,324.000000,,2013-03-26 00:02:00,
2013-03-25 17:12:00,49.0,29.0,-100.00,NE,40,3.0,8.0,45,0.00,,,0.00,324.000000,,2013-03-26 00:12:00,
2013-03-25 17:22:00,49.0,29.0,-100.00,NE,40,3.0,8.0,45,0.00,,,0.00,324.000000,,2013-03-26 00:22:00,
2013-03-25 17:52:00,46.0,28.0,-100.00,NNE,21,3.0,9.0,50,0.00,,,0.00,193.000000,,2013-03-26 00:52:00,
2013-03-25 18:02:00,46.0,28.0,-100.00,NNE,21,3.0,9.0,50,0.00,,,0.00,193.000000,,2013-03-26 01:02:00,
2013-03-25 18:12:00,46.0,28.0,-100.00,NNE,21,3.0,9.0,50,0.00,,,0.00,193.000000,,2013-03-26 01:12:00,
2013-03-25 18:22:00,46.0,28.0,-100.00,NNE,21,3.0,9.0,50,0.00,,,0.00,193.000000,,2013-03-26 01:22:00,
2013-03-25 18:52:00,42.0,27.0,-100.00,NNE,28,2.0,8.0,56,0.00,,,0.00,81.000000,,2013-03-26 01:52:00,
2013-03-25 19:02:00,42.0,27.0,-100.00,NNE,28,2.0,8.0,56,0.00,,,0.00,81.000000,,2013-03-26 02:02:00,
2013-03-25 19:12:00,42.0,27.0,-100.00,NNE,28,2.0,8.0,56,0.00,,,0.00,81.000000,,2013-03-26 02:12:00,
2013-03-25 19:22:00,42.0,27.0,-100.00,NNE,28,2.0,8.0,56,0.00,,,0.00,81.000000,,2013-03-26 02:22:00,
2013-03-25 19:52:00,39.0,27.0,-100.00,East,80,1.0,8.0,61,0.00,,,0.00,28.000000,,2013-03-26 02:52:00,
2013-03-25 20:02:00,39.0,27.0,-100.00,East,80,1.0,8.0,61,0.00,,,0.00,28.000000,,2013-03-26 03:02:00,
2013-03-25 20:12:00,39.0,27.0,-100.00,East,80,1.0,8.0,61,0.00,,,0.00,28.000000,,2013-03-26 03:12:00,
2013-03-25 20:22:00,39.0,27.0,-100.00,East,80,1.0,8.0,61,0.00,,,0.00,28.000000,,2013-03-26 03:22:00,
2013-03-25 20:53:00,37.0,27.0,-100.00,SSW,201,1.0,5.0,66,0.00,,,0.00,1.000000,,2013-03-26 03:53:00,
2013-03-25 21:03:00,37.0,27.0,-100.00,SSW,201,1.0,5.0,66,0.00,,,0.00,1.000000,,2013-03-26 04:03:00,
2013-03-25 21:12:00,37.0,27.0,-100.00,SSW,201,1.0,5.0,66,0.00,,,0.00,1.000000,,2013-03-26 04:12:00,
2013-03-25 21:22:00,37.0,27.0,-100.00,SSW,201,1.0,5.0,66,0.00,,,0.00,1.000000,,2013-03-26 04:22:00,
2013-03-25 21:52:00,36.0,26.0,-100.00,WSW,238,0.0,4.0,68,0.00,,,0.00,1.000000,,2013-03-26 04:52:00,
2013-03-25 22:02:00,36.0,26.0,-100.00,WSW,238,0.0,4.0,68,0.00,,,0.00,1.000000,,2013-03-26 05:02:00,
2013-03-25 22:12:00,36.0,26.0,-100.00,WSW,238,0.0,4.0,68,0.00,,,0.00,1.000000,,2013-03-26 05:12:00,
2013-03-25 22:22:00,36.0,26.0,-100.00,WSW,238,0.0,4.0,68,0.00,,,0.00,1.000000,,2013-03-26 05:22:00,
2013-03-25 22:52:00,36.0,27.0,-100.00,NNE,15,2.0,5.0,70,0.00,,,0.00,1.000000,,2013-03-26 05:52:00,
2013-03-25 23:02:00,36.0,27.0,-100.00,NNE,15,2.0,5.0,70,0.00,,,0.00,1.000000,,2013-03-26 06:02:00,
2013-03-25 23:12:00,36.0,27.0,-100.00,NNE,15,2.0,5.0,70,0.00,,,0.00,1.000000,,2013-03-26 06:12:00,
2013-03-25 23:21:00,36.0,27.0,-100.00,NNE,15,2.0,5.0,70,0.00,,,0.00,1.000000,,2013-03-26 06:21:00,
2013-03-25 23:52:00,35.0,27.0,-100.00,North,358,3.0,6.0,73,0.00,,,0.00,1.000000,,2013-03-26 06:52:00,